This is the latest recevied weather packets stored in our database for station/object KD9ZDW. If no packets are shown the sender has not sent any weather packets the latest 10 day(s).
| Time | Temp. | Humidity | Pressure | Rain* | Wind** | Luminosity | Snow |
|---|---|---|---|---|---|---|---|
| 1777640935 | 3.33° C | 95% | 1015.7 hPa | 0 mm | - | 54 W/m² | - |
| 1777640632 | 3.33° C | 95% | 1015.7 hPa | 1.78 mm | - | 43 W/m² | - |
| 1777640328 | 3.33° C | 95% | 1015.9 hPa | 3.05 mm | - | 39 W/m² | - |
| 1777640025 | 3.33° C | 95% | 1015.7 hPa | 3.05 mm | - | 34 W/m² | - |
| 1777639722 | 3.33° C | 95% | 1015.5 hPa | 3.56 mm | - | 31 W/m² | - |
| 1777639420 | 3.33° C | 94% | 1015.3 hPa | 1.78 mm | - | 29 W/m² | - |
| 1777639119 | 3.33° C | 94% | 1015.6 hPa | 0 mm | - | 16 W/m² | - |
| 1777638818 | 3.33° C | 94% | 1015.5 hPa | 1.27 mm | - | 25 W/m² | - |
| 1777638517 | 2.78° C | 94% | 1015.5 hPa | 1.27 mm | - | 20 W/m² | - |
| 1777638215 | 2.78° C | 94% | 1015.5 hPa | 3.05 mm | - | 19 W/m² | - |
| 1777637911 | 2.78° C | 94% | 1015.5 hPa | 4.83 mm | - | 17 W/m² | - |
| 1777637606 | 3.33° C | 94% | 1015.4 hPa | 3.05 mm | - | 14 W/m² | - |
| 1777637304 | 3.33° C | 94% | 1015.2 hPa | 1.27 mm | - | 7 W/m² | - |
| 1777637001 | 3.89° C | 94% | 1015.2 hPa | 0 mm | - | 6 W/m² | - |
| 1777636696 | 3.89° C | 94% | 1015.1 hPa | 0 mm | - | 5 W/m² | - |
| 1777636393 | 3.33° C | 94% | 1014.8 hPa | 0 mm | - | 7 W/m² | - |
| 1777636089 | 3.33° C | 94% | 1014.8 hPa | 0 mm | - | 7 W/m² | - |
| 1777635784 | 3.33° C | 94% | 1014.8 hPa | 0 mm | - | 7 W/m² | - |
| 1777635481 | 3.33° C | 94% | 1014.6 hPa | 0 mm | - | 7 W/m² | - |
| 1777635178 | 3.33° C | 94% | 1014.4 hPa | 0 mm | - | 5 W/m² | - |
| 1777634874 | 3.33° C | 94% | 1014.3 hPa | 0 mm | - | 6 W/m² | - |
| 1777634571 | 3.33° C | 94% | 1014.2 hPa | 0 mm | - | 4 W/m² | - |
| 1777634268 | 3.33° C | 94% | 1014.1 hPa | 0 mm | - | 4 W/m² | - |
| 1777633964 | 3.33° C | 94% | 1014.1 hPa | 0 mm | - | 2 W/m² | - |
| 1777633662 | 3.89° C | 94% | 1014.1 hPa | 0 mm | - | 3 W/m² | - |
* Rain latest hour (hover to see other rain measurements)
** Current wind speed in m/s (hover to see current wind gust speed)